Jack Northrop Field Hawthorne Municipal Airport
KHHR : now visible

Airfield :











YOU CAN JOIN US ON...

 
LOGIN :

Register | Disclaimer

   EN    FR    IT 

 









Legend :    VFR   Marginal VFR   IFR   Intensive IFR   Very Intensive IFR
Visi :
Ceiling :
>= 8 km
>= 3000ft
5 to 8 km
1000 to 3000 ft
1500m to 5 km
500 to 1000 ft
800 to 1500m
200 to 500 ft
< 800m
< 200 ft
Symbols :   Thunderstorms  Fog  Heavy snow  Heavy precipitations  Wind > 20 kt






- Airport Elevation : 66 ft


KHHR - Jack Northrop Field Hawthorne Municipal

CURRENT METAR :
  • 240816Z AUTO 00000KT 10SM OVC030 18/14 A3000 RMK AO2 T01830144

EXPIRED METARs :
  • 240753Z AUTO 00000KT 10SM OVC028 18/14 A3000 RMK AO2 SLP157 T01830144 402060178
  • 240653Z AUTO 00000KT 10SM OVC027 18/13 A3001 RMK AO2 SLP161 T01830133
  • 240641Z AUTO 00000KT 10SM BKN029 18/13 A3000 RMK AO2 T01780133
  • 240553Z AUTO 00000KT 10SM CLR 18/14 A3001 RMK AO2 SLP161 T01780139 10200 20178 51010

TAF N/A
KZLA FIR / North America



MET'MAP, your aeronautical weather chart ! - Copyright ORBIFLY December 2007 - Disclaimer

ORBIFLY MET'MAP TEAM :

Programming & Development : Alexandra Zaïnal
Concept & original design : Baudouin d'Aumeries
Assistance for programming : Marc-Olivier Méhu
Technical & hardware support : Manuel Goepfert

Contact : metmap@orbifly.com




SOURCES & CREDITS :

   NOAA       Earth
Advisory